Regional Weather Roundup
Issued by NWS

Home | Current Version | Previous Version | Graphics & Text | Print | Product List | Glossary On
Versions: 1 2 3 4 5 6 7 8 9 10 11 12 13 14 15 16 17 18 19 20 21 22 23 24 25 26 27 28 29 30 31 32 33 34 35 36 37 38 39 40 41 42 43 44 45 46 47 48 49 50
000
ASUS43 KOAX 291710
RWRNE

WEATHER ROUNDUP FOR NEBRASKA
NATIONAL WEATHER SERVICE OMAHA NE
1200 PM CDT FRI JUL 29 2016

NOTES: SATELLITE DATA IS BEING USED TO AUGMENT CLOUD COVER ABOVE
       12000 FEET.
       "FAIR" INDICATES FEW OR NO CLOUDS BELOW 12,000 FEET WITH NO
       SIGNIFICANT WEATHER AND/OR OBSTRUCTIONS TO VISIBILITY.

  * THESE STATIONS DO NOT REPORT WEATHER SUCH AS RAIN...SNOW OR FOG.

NEZ001>004-019>022-054>056-291800-
NEBRASKA PANHANDLE

CITY           SKY/WX    TMP DP  RH WIND       PRES   REMARKS
SCOTTSBLUFF    SUNNY     77  58  51 SE8       30.14F
ALLIANCE       SUNNY     77  59  53 VRB5      30.14S
CHADRON        SUNNY     77  58  51 CALM      30.10F
KIMBALL        MOSUNNY   74  57  55 S8        30.21S
SIDNEY         PTSUNNY   77  58  51 VRB7      30.19R
$$

NEZ057>060-069>072-079>082-291800-
SOUTHWEST NEBRASKA

CITY           SKY/WX    TMP DP  RH WIND       PRES   REMARKS
NORTH PLATTE   MOSUNNY   75  62  64 S3        30.13S
IMPERIAL       MOSUNNY   73  59  61 S6        30.15S
LEXINGTON      MOSUNNY   74  63  68 CALM      30.12S
MCCOOK         PTSUNNY   76  62  62 S7        30.13S
OGALLALA       SUNNY     78  60  55 E6        30.14S
$$

NEZ005>010-023>029-035>040-094-291800-
NORTH CENTRAL NEBRASKA

CITY           SKY/WX    TMP DP  RH WIND       PRES   REMARKS
VALENTINE      CLOUDY    69  59  70 S7        30.14S
AINSWORTH      MOSUNNY   68  63  83 CALM      30.15S
BROKEN BOW     CLOUDY    69  63  81 NE3       30.13S
O`NEILL        PTSUNNY   72  58  61 NE7       30.13S
ORD            PTSUNNY   70  63  78 CALM      30.11S
THEDFORD       PTSUNNY   72  62  72 E3        30.15F
$$

NEZ041-046>049-061>064-073>077-083>087-291800-
SOUTH CENTRAL NEBRASKA

CITY           SKY/WX    TMP DP  RH WIND       PRES   REMARKS
GRAND ISLAND   CLOUDY    74  63  68 N6        30.10S
AURORA         PTSUNNY   76  60  58 NE3       30.09S
HASTINGS       PTSUNNY   77  62  59 N3        30.10S
HEBRON         PTSUNNY   78  62  56 NE5       30.06S
HOLDREGE       MOSUNNY   75  61  62 E3        30.11S
KEARNEY *      MOSUNNY   75  64  69 NE3       30.11F
YORK           CLOUDY    73  64  73 NE8       30.09S
$$

NEZ011>018-030>034-042>045-291800-
NORTHEAST NEBRASKA

CITY           SKY/WX    TMP DP  RH WIND       PRES   REMARKS
NORFOLK        MOSUNNY   74  58  57 E6        30.09F
ALBION         CLOUDY    72  61  69 CALM      30.11S
BLAIR          CLOUDY    74  62  65 NW6       30.06F
FREMONT        PTSUNNY   75  62  63 NW5       30.07F
TEKAMAH        MOSUNNY   77  61  57 NE8       30.06F
WAYNE          PTSUNNY   72  62  71 E3        30.10S
$$

NEZ050>053-065>068-078-088>093-291800-
SOUTHEAST NEBRASKA

CITY           SKY/WX    TMP DP  RH WIND       PRES   REMARKS
LINCOLN        LGT RAIN  73  66  78 N8        30.08S
OMAHA EPPLEY   CLOUDY    78  62  57 N8        30.05F
BEATRICE       MOSUNNY   79  63  57 NE8       30.06S
FALLS CITY     MOSUNNY   78  66  66 VRB5      30.03F
NEBRASKA CITY  MOSUNNY   74  64  69 NE9       30.05F
PLATTSMOUTH    CLOUDY    73  63  69 N3        30.06S
$$

NEZ044-045-051>053-067-291800-
OMAHA AREA

CITY           SKY/WX    TMP DP  RH WIND       PRES   REMARKS
OMAHA EPPLEY   CLOUDY    78  62  57 N8        30.05F
BLAIR          CLOUDY    74  62  65 NW6       30.06F
FREMONT        PTSUNNY   75  62  63 NW5       30.07F
MILLARD        MOSUNNY   76  62  62 NW7       30.05F
OFFUTT AFB     MOSUNNY   76  62  62 VRB6      30.05F
PLATTSMOUTH    CLOUDY    73  63  69 N3        30.06S
WAHOO          PTSUNNY   75  63  66 NE3       30.07F
$$



USA.gov is the U.S. government's official web portal to all federal, state and local government web resources and services.